Flag for Lebanon Weather past 2 weeks in Sidon, Lebanon

Now
79 °F

Passing clouds.


Feels Like: 81 °F
Forecast: 74 / 84 °F
Wind: 5 mph from South

Location: Beirut Airport

Current Time: Jul 24, 2014 at 5:28:43 AM

Latest Report: Jul 24, 2014 at 4:00 AM


Visibility: N/A

Pressure: 29.80 "Hg

Humidity: 70%

Dew point: 68 °F

Location of SidonLocation

Historic Weather in Sidon — Graph

°F

Sidon temperature yesterday

Maximum temperature yesterday: 86 °F (at 4:00 PM)
Minimum temperature yesterday: 77 °F (at 5:00 AM)
Average temperature yesterday: 81 °F

Past Weeks' High & Low Weather Summary

 TemperatureHumidityPressure
High86 °F (Jul 9, 3:00 PM)84% (Jul 10, 9:00 PM)29.92 "Hg (Jul 10, 9:00 PM)
Low75 °F (Jul 18, 6:00 AM)48% (Jul 13, 12:00 AM)29.71 "Hg (Jul 21, 4:00 AM)
Average81 °F66%29.81 "Hg
* Reported Jul 9 3:00 AM — Jul 24 3:00 AM, Sidon, Weather by CustomWeather, © 2014

Note: Actual official high and low records may vary slightly from our data, if they occured in-between our weather recording intervals... More about our weather records

Advertising

Sidon weather history for previous 24 hours

 ConditionsComfort  
Time TempWeatherWind HumidityBarometerVisibility
3:00 AM
Jul 24
79 °FPassing clouds.6 mph70%29.80 "HgN/A
2:00 AM77 °FPassing clouds.5 mph69%29.83 "HgN/A
1:00 AM79 °FPassing clouds.5 mph74%29.83 "HgN/A
12:00 AM79 °FPassing clouds.5 mph79%29.83 "Hg5 mi
11:00 PM
Jul 23
79 °FPassing clouds.5 mph84%29.83 "HgN/A
10:00 PM81 °FPassing clouds.6 mph79%29.83 "HgN/A
9:00 PM81 °FPassing clouds.6 mph79%29.83 "Hg5 mi
8:00 PM81 °FPassing clouds.7 mph79%29.83 "Hg5 mi
7:00 PM82 °FPassing clouds.7 mph74%29.80 "HgN/A
6:00 PM84 °FPassing clouds.8 mph70%29.80 "HgN/A
5:00 PM84 °FPassing clouds.8 mph70%29.80 "HgN/A
4:00 PM86 °FPassing clouds.10 mph62%29.83 "Hg5 mi
12:00 PM84 °FSunny.13 mph66%29.83 "HgN/A
11:00 AM84 °FSunny.12 mph66%29.83 "HgN/A
8:00 AM81 °FSunny.9 mph70%29.83 "HgN/A
7:00 AM79 °FPassing clouds.3 mph70%29.80 "HgN/A
6:00 AM77 °FClear.5 mph74%29.80 "Hg10 mi
5:00 AM77 °FClear.3 mph79%29.80 "Hg10 mi
Weather by CustomWeather, © 2014

See weather overviewHow to use our weather pages